Prairie Du Chien, WI

1:12 AM CDT on August 22, 2017 (GMT -0500)
Prairie Du Chien Municipal

Weather History for KPDC - May, 2013

Change the Weather History Date:

Wednesday, May 15, 2013

  Actual Average Record
Temperature  
Mean Temperature 66 °F -  
Max Temperature 77 °F 73 °F 90 °F (1977)
Min Temperature 54 °F 48 °F 30 °F (2016)
Cooling Degree Days 1    
Growing Degree Days 16 (Base 50)    
Moisture  
Dew Point 42 °F    
Average Humidity 40    
Maximum Humidity 77    
Minimum Humidity 24    
Precipitation  
Precipitation 0.01 in - - ()
Sea Level Pressure  
Sea Level Pressure 29.82 in    
Wind  
Wind Speed 6 mph (NW)    
Max Wind Speed 14 mph    
Max Gust Speed 21 mph    
Visibility 10 miles    
Events      
Averages and records for this station are not official NWS values.
T = Trace of Precipitation, MM = Missing Value Source: NWS Daily Summary

Daily Weather History Graph

Daily Weather History Graph

Search for Another Location

Airport or City:

Trip Planner

Search our weather history database for the weather conditions in past years. The results will help you decide how hot, cold, wet, or windy it might be!

Date:

Astronomy

May. 15, 2013 Rise Set
Actual Time 5:40 AM CDT 8:21 PM CDT
Civil Twilight 5:08 AM CDT 8:54 PM CDT
Nautical Twilight 4:27 AM CDT 9:35 PM CDT
Astronomical Twilight 3:40 AM CDT 10:22 PM CDT
Moon 10:18 AM CDT (5/15) 12:06 AM CDT (5/15)
Length of Visible Light 15h 45m
Length of Day
14h 40m
Waxing Crescent, 27% of the Moon is Illuminated
May 15
Waxing Crescent
May 17
First Quarter
May 24
Full
May 31
Last Quarter
Jun 8
New

Hourly Weather History & Observations

Time (CDT) Temp. Dew Point Humidity Pressure Visibility Wind Dir Wind Speed Gust Speed Precip Events Conditions
12:15 AM 74.8 °F 44.8 °F 34% 29.63 in 10.0 mi NNW 4.6 mph - N/A   Clear
12:35 AM 73.6 °F 42.6 °F 33% 29.64 in 10.0 mi NW 6.9 mph - N/A   Clear
12:55 AM 74.1 °F 39.0 °F 28% 29.64 in 10.0 mi WNW 5.8 mph - N/A   Clear
1:35 AM 72.0 °F 35.8 °F 27% 29.66 in 10.0 mi NNW 4.6 mph - N/A   Clear
1:55 AM 70.2 °F 36.3 °F 29% 29.67 in 10.0 mi NNW 4.6 mph - N/A   Clear
2:15 AM 71.1 °F 36.0 °F 28% 29.68 in 10.0 mi NNW 5.8 mph - N/A   Clear
2:35 AM 69.8 °F 36.0 °F 29% 29.69 in 10.0 mi NW 5.8 mph - N/A   Clear
2:55 AM 67.8 °F 37.0 °F 32% 29.70 in 10.0 mi NW 6.9 mph - N/A   Clear
3:15 AM 68.0 °F 36.9 °F 32% 29.70 in 10.0 mi NW 8.1 mph - N/A   Clear
3:35 AM 66.6 °F 39.0 °F 36% 29.71 in 10.0 mi WNW 5.8 mph - N/A   Clear
3:55 AM 65.3 °F 40.1 °F 40% 29.73 in 10.0 mi Calm Calm - N/A   Clear
4:15 AM 64.9 °F 41.5 °F 42% 29.73 in 10.0 mi NW 5.8 mph - N/A   Clear
4:35 AM 64.8 °F 42.8 °F 45% 29.73 in 10.0 mi NW 6.9 mph - N/A   Clear
4:55 AM 64.0 °F 43.3 °F 47% 29.74 in 10.0 mi NW 6.9 mph - N/A   Clear
5:15 AM 62.1 °F 44.4 °F 52% 29.75 in 10.0 mi WNW 9.2 mph - N/A   Clear
5:35 AM 61.9 °F 44.6 °F 53% 29.75 in 10.0 mi WNW 9.2 mph - N/A   Clear
5:55 AM 61.5 °F 45.0 °F 55% 29.77 in 10.0 mi West 8.1 mph - N/A   Clear
6:15 AM 61.7 °F 45.1 °F 55% 29.79 in 10.0 mi West 9.2 mph - N/A   Clear
6:35 AM 60.1 °F 46.4 °F 61% 29.79 in 10.0 mi NW 3.5 mph - N/A   Clear
6:55 AM 61.5 °F 46.8 °F 58% 29.80 in 10.0 mi West 3.5 mph - N/A   Clear
7:15 AM 62.6 °F 45.9 °F 54% 29.82 in 10.0 mi West 5.8 mph - N/A   Clear
7:35 AM 63.0 °F 46.8 °F 55% 29.83 in 10.0 mi West 4.6 mph - N/A   Clear
7:55 AM 63.9 °F 46.9 °F 54% 29.84 in 10.0 mi NW 9.2 mph - N/A   Clear
8:15 AM 64.8 °F 47.3 °F 53% 29.85 in 10.0 mi NNW 8.1 mph - N/A   Clear
8:35 AM 64.9 °F 47.3 °F 53% 29.86 in 10.0 mi NW 8.1 mph - N/A   Clear
8:55 AM 65.1 °F 47.1 °F 52% 29.86 in 10.0 mi NNW 9.2 mph - N/A   Clear
9:15 AM 67.1 °F 46.9 °F 48% 29.86 in 10.0 mi NNW 10.4 mph - N/A   Clear
9:35 AM 68.0 °F 46.4 °F 46% 29.88 in 10.0 mi NW 6.9 mph - N/A   Clear
9:55 AM 68.4 °F 46.0 °F 45% 29.88 in 10.0 mi NNW 6.9 mph - N/A   Clear
10:15 AM 69.8 °F 45.9 °F 42% 29.88 in 10.0 mi NW 6.9 mph - N/A   Clear
10:35 AM 70.5 °F 45.0 °F 40% 29.89 in 10.0 mi NW 10.4 mph 16.1 mph N/A   Clear
10:55 AM 71.8 °F 42.6 °F 35% 29.89 in 10.0 mi NW 10.4 mph 16.1 mph N/A   Clear
11:15 AM 72.3 °F 41.5 °F 33% 29.89 in 10.0 mi NW 11.5 mph - N/A   Clear
11:35 AM 73.4 °F 39.9 °F 30% 29.90 in 10.0 mi NW 13.8 mph 20.7 mph N/A   Clear
11:55 AM 72.3 °F 39.2 °F 30% 29.89 in 7.0 mi WNW 13.8 mph 18.4 mph N/A   Clear
12:15 PM 73.2 °F 39.4 °F 29% 29.90 in 10.0 mi NW 11.5 mph - N/A   Clear
12:55 PM 73.9 °F 41.5 °F 31% 29.88 in 10.0 mi North 5.8 mph - N/A   Clear
1:15 PM 74.5 °F 37.4 °F 26% 29.89 in 10.0 mi Calm Calm - N/A   Scattered Clouds
1:35 PM 75.0 °F 39.0 °F 27% 29.88 in 10.0 mi West 6.9 mph - N/A   Scattered Clouds
1:55 PM 75.4 °F 38.3 °F 26% 29.86 in 10.0 mi NW 6.9 mph - N/A   Scattered Clouds
2:15 PM 75.2 °F 37.8 °F 26% 29.87 in 7.0 mi WNW 10.4 mph - N/A   Mostly Cloudy
2:35 PM 76.6 °F 38.5 °F 25% 29.87 in 3.0 mi WNW 12.7 mph 16.1 mph N/A   Haze
2:55 PM 75.7 °F 36.1 °F 24% 29.86 in 10.0 mi NW 8.1 mph 16.1 mph N/A   Clear
3:15 PM 75.4 °F 35.6 °F 24% 29.84 in 10.0 mi North 4.6 mph - N/A   Clear
3:35 PM 75.9 °F 36.1 °F 24% 29.84 in 10.0 mi Calm Calm - N/A   Clear
3:55 PM 74.8 °F 36.0 °F 24% 29.84 in 10.0 mi NW 4.6 mph - N/A   Clear
4:15 PM 73.6 °F 35.2 °F 25% 29.83 in 10.0 mi North 6.9 mph - N/A   Clear
4:35 PM 73.2 °F 36.5 °F 26% 29.84 in 10.0 mi North 8.1 mph - N/A   Clear
4:55 PM 73.9 °F 39.6 °F 29% 29.84 in 10.0 mi North 4.6 mph - N/A   Clear
5:15 PM 74.8 °F 37.9 °F 26% 29.84 in 10.0 mi NW 8.1 mph - N/A   Clear
5:35 PM 75.0 °F 38.7 °F 27% 29.84 in 10.0 mi WNW 6.9 mph - N/A   Clear
5:55 PM 75.2 °F 40.1 °F 28% 29.84 in 10.0 mi NW 5.8 mph - N/A   Clear
6:15 PM 74.5 °F 38.5 °F 27% 29.84 in 10.0 mi NW 5.8 mph - N/A   Clear
6:35 PM 74.3 °F 38.1 °F 27% 29.84 in 10.0 mi WNW 5.8 mph - N/A   Clear
6:55 PM 74.3 °F 38.8 °F 28% 29.84 in 10.0 mi West 4.6 mph - N/A   Clear
7:15 PM 73.9 °F 39.4 °F 29% 29.84 in 10.0 mi WNW 4.6 mph - N/A   Clear
7:35 PM 72.9 °F 39.9 °F 30% 29.85 in 10.0 mi NW 5.8 mph - N/A   Clear
7:55 PM 72.0 °F 39.6 °F 31% 29.85 in 10.0 mi NNW 4.6 mph - N/A   Clear
8:15 PM 70.5 °F 40.3 °F 33% 29.85 in 10.0 mi West 4.6 mph - N/A   Clear
8:35 PM 68.9 °F 41.4 °F 37% 29.86 in 10.0 mi Calm Calm - N/A   Clear
8:55 PM 66.6 °F 44.1 °F 44% 29.86 in 10.0 mi Calm Calm - N/A   Clear
9:15 PM 65.1 °F 47.8 °F 54% 29.87 in 10.0 mi Calm Calm - N/A   Clear
9:35 PM 64.0 °F 47.7 °F 55% 29.87 in 10.0 mi Calm Calm - N/A   Clear
9:55 PM 63.0 °F 48.4 °F 59% 29.88 in 10.0 mi Calm Calm - N/A   Clear
10:15 PM 61.0 °F 48.9 °F 64% 29.88 in 10.0 mi Calm Calm - N/A   Clear
10:35 PM 58.6 °F 47.7 °F 67% 29.88 in 10.0 mi Calm Calm - N/A   Clear
10:55 PM 57.9 °F 47.8 °F 69% 29.88 in 10.0 mi Calm Calm - N/A   Clear
11:15 PM 57.9 °F 47.3 °F 68% 29.88 in 10.0 mi Calm Calm - N/A   Clear
11:35 PM 56.5 °F 47.8 °F 73% 29.87 in 10.0 mi Calm Calm - N/A   Clear
11:55 PM 54.7 °F 47.5 °F 77% 29.88 in 10.0 mi Calm Calm - N/A   Clear